H1 CPF 2 NER 2021 9 6 9 249 01 glonass142 H2 2001801 9142 45358 2021 9 6 0 0 0 2021 9 9 23 45 0 900 1 1 0 0 0 1 H9 10 0 59463 0.00000 0 21349205.514 4224995.748 -13312660.886 10 0 59463 900.00000 0 22737187.005 4743354.497 -10559809.894 10 0 59463 1800.00000 0 23833749.490 5026633.161 -7601978.407 10 0 59463 2700.00000 0 24593931.895 5111827.048 -4496614.967 10 0 59463 3600.00000 0 24983269.757 5044149.497 -1304004.112 10 0 59463 4500.00000 0 24979248.387 4874870.054 1913903.507 10 0 59463 5400.00000 0 24572274.489 4658902.666 5094691.470 10 0 59463 6300.00000 0 23766125.777 4452246.330 8176685.129 10 0 59463 7200.00000 0 22577860.164 4309386.630 11100142.900 10 0 59463 8100.00000 0 21037188.628 4280768.053 13808408.502 10 0 59463 9000.00000 0 19185338.030 4410443.734 16249002.261 10 0 59463 9900.00000 0 17073451.340 4734001.648 18374630.837 10 0 59463 10800.00000 0 14760591.666 5276854.615 20144096.614 10 0 59463 11700.00000 0 12311432.603 6052966.200 21523089.939 10 0 59463 12600.00000 0 9793730.305 7064066.433 22484849.608 10 0 59463 13500.00000 0 7275681.331 8299390.986 23010679.514 10 0 59463 14400.00000 0 4823274.876 9735955.794 23090311.921 10 0 59463 15300.00000 0 2497748.270 11339356.985 22722110.467 10 0 59463 16200.00000 0 353250.266 13065064.237 21913108.819 10 0 59463 17100.00000 0 -1565191.852 14860155.251 20678883.698 10 0 59463 18000.00000 0 -3223317.514 16665420.459 19043263.903 10 0 59463 18900.00000 0 -4598822.641 18417751.527 17037879.922 10 0 59463 19800.00000 0 -5682044.768 20052714.947 14701561.633 10 0 59463 20700.00000 0 -6476115.102 21507203.732 12079594.640 10 0 59463 21600.00000 0 -6996571.357 22722056.417 9222848.637 10 0 59463 22500.00000 0 -7270447.835 23644533.335 6186793.891 10 0 59463 23400.00000 0 -7334881.224 24230545.533 3030424.632 10 0 59463 24300.00000 0 -7235291.349 24446541.677 -184889.820 10 0 59463 25200.00000 0 -7023214.278 24270972.394 -3396603.499 10 0 59463 26100.00000 0 -6753880.244 23695269.156 -6542217.738 10 0 59463 27000.00000 0 -6483639.925 22724295.317 -9560505.900 10 0 59463 27900.00000 0 -6267349.282 21376249.306 -12392714.039 10 0 59463 28800.00000 0 -6155824.972 19682023.308 -14983713.016 10 0 59463 29700.00000 0 -6193479.381 17684043.957 -17283078.749 10 0 59463 30600.00000 0 -6416236.563 15434643.472 -19246078.918 10 0 59463 31500.00000 0 -6849818.267 12994029.670 -20834546.403 10 0 59463 32400.00000 0 -7508473.346 10427939.994 -22017622.383 10 0 59463 33300.00000 0 -8394204.834 7805077.835 -22772354.781 10 0 59463 34200.00000 0 -9496527.756 5194438.432 -23084140.708 10 0 59463 35100.00000 0 -10792768.189 2662635.814 -22947004.854 10 0 59463 36000.00000 0 -12248891.213 271341.898 -22363708.978 10 0 59463 36900.00000 0 -13820823.068 -1925056.115 -21345690.916 10 0 59463 37800.00000 0 -15456212.041 -3881483.400 -19912834.854 10 0 59463 38700.00000 0 -17096554.302 -5563807.006 -18093077.725 10 0 59463 39600.00000 0 -18679595.453 -6950000.724 -15921859.741 10 0 59463 40500.00000 0 -20141907.164 -8030798.463 -13441430.027 10 0 59463 41400.00000 0 -21421530.856 -8809810.780 -10700020.981 10 0 59463 42300.00000 0 -22460577.605 -9303101.581 -7750907.668 10 0 59463 43200.00000 0 -23207675.337 -9538244.710 -4651370.683 10 0 59463 44100.00000 0 -23620160.757 -9552901.872 -1461582.726 10 0 59463 45000.00000 0 -23665924.243 -9392983.212 1756559.178 10 0 59463 45900.00000 0 -23324830.534 -9110469.364 4940633.109 10 0 59463 46800.00000 0 -22589655.822 -8760987.713 8028899.997 10 0 59463 47700.00000 0 -21466502.149 -8401245.704 10961496.248 10 0 59463 48600.00000 0 -19974671.867 -8086429.772 13681588.410 10 0 59463 49500.00000 0 -18146007.303 -7867679.661 16136467.919 10 0 59463 50400.00000 0 -16023723.030 -7789744.447 18278565.251 10 0 59463 51300.00000 0 -13660778.973 -7888918.815 20066364.575 10 0 59463 52200.00000 0 -11117861.389 -8191346.307 21465202.051 10 0 59463 53100.00000 0 -8461054.872 -8711760.888 22447933.031 10 0 59463 54000.00000 0 -5759300.959 -9452719.949 22995455.974 10 0 59463 54900.00000 0 -3081747.584 -10404361.572 23097083.423 10 0 59463 55800.00000 0 -495098.147 -11544697.123 22750753.002 10 0 59463 56700.00000 0 1938931.111 -12840428.170 21963074.220 10 0 59463 57600.00000 0 4165941.059 -14248254.979 20749209.670 10 0 59463 58500.00000 0 6140871.063 -15716623.291 19132592.087 10 0 59463 59400.00000 0 7829628.519 -17187837.699 17144481.694 10 0 59463 60300.00000 0 9210259.181 -18600454.349 14823371.200 10 0 59463 61200.00000 0 10273609.717 -19891853.493 12214248.839 10 0 59463 62100.00000 0 11023454.992 -21000884.409 9367732.682 10 0 59463 63000.00000 0 11476084.930 -21870471.567 6339092.217 10 0 59463 63900.00000 0 11659368.429 -22450071.920 3187175.820 10 0 59463 64800.00000 0 11611334.097 -22697879.012 -26735.116 10 0 59463 65700.00000 0 11378328.159 -22582679.859 -3240122.806 10 0 59463 66600.00000 0 11012828.005 -22085284.980 -6390456.409 10 0 59463 67500.00000 0 10571004.789 -21199469.909 -9416417.400 10 0 59463 68400.00000 0 10110139.281 -19932387.199 -12259102.081 10 0 59463 69300.00000 0 9686001.541 -18304430.494 -14863176.713 10 0 59463 70200.00000 0 9350306.514 -16348555.526 -17177961.881 10 0 59463 71100.00000 0 9148354.333 -14109085.971 -19158424.290 10 0 59463 72000.00000 0 9116956.070 -11640054.017 -20766056.182 10 0 59463 72900.00000 0 9282733.329 -9003145.005 -21969625.157 10 0 59463 73800.00000 0 9660863.994 -6265332.057 -22745779.959 10 0 59463 74700.00000 0 10254327.335 -3496299.569 -23079500.730 10 0 59463 75600.00000 0 11053680.354 -765762.875 -22964385.542 10 0 59463 76500.00000 0 12037374.793 1859204.490 -22402768.182 10 0 59463 77400.00000 0 13172601.267 4316725.062 -21405665.479 10 0 59463 78300.00000 0 14416624.867 6552447.719 -19992555.732 10 0 59463 79200.00000 0 15718555.885 8521557.996 -18190992.958 10 0 59463 80100.00000 0 17021481.031 10190385.954 -16036064.820 10 0 59463 81000.00000 0 18264865.443 11537546.157 -13569705.056 10 0 59463 81900.00000 0 19387124.426 12554563.951 -10839873.895 10 0 59463 82800.00000 0 20328256.734 13245963.667 -7899622.689 10 0 59463 83700.00000 0 21032428.717 13628817.011 -4806061.034 10 0 59463 84600.00000 0 21450400.685 13731772.427 -1619246.627 10 0 59463 85500.00000 0 21541693.577 13593607.865 1598980.369 10 0 59464 0.00000 0 21276405.008 13261369.294 4786195.636 10 0 59464 900.00000 0 20636598.069 12788174.554 7880598.819 10 0 59464 1800.00000 0 19617205.819 12230775.554 10822207.035 10 0 59464 2700.00000 0 18226411.463 11646982.601 13554012.140 10 0 59464 3600.00000 0 16485490.163 11093058.830 16023078.853 10 0 59464 4500.00000 0 14428117.330 10621194.890 18181563.308 10 0 59464 5400.00000 0 12099172.286 10277169.646 19987632.982 10 0 59464 6300.00000 0 9553086.102 10098295.051 21406271.061 10 0 59464 7200.00000 0 6851801.429 10111731.240 22409950.345 10 0 59464 8100.00000 0 4062427.828 10333242.492 22979164.433 10 0 59464 9000.00000 0 1254688.522 10766446.399 23102806.350 10 0 59464 9900.00000 0 -1501736.839 11402588.179 22778387.514 10 0 59464 10800.00000 0 -4139864.667 12220850.344 22012092.654 10 0 59464 11700.00000 0 -6597946.450 13189185.801 20818669.155 10 0 59464 12600.00000 0 -8821789.908 14265640.672 19221152.143 10 0 59464 13500.00000 0 -10766766.745 15400112.637 17250429.603 10 0 59464 14400.00000 0 -12399424.047 16536472.208 14944654.731 10 0 59464 15300.00000 0 -13698632.412 17614958.802 12348515.752 10 0 59464 16200.00000 0 -14656223.072 18574751.475 9512376.289 10 0 59464 17100.00000 0 -15277087.394 19356606.320 6491302.112 10 0 59464 18000.00000 0 -15578734.596 19905449.103 3343992.777 10 0 59464 18900.00000 0 -15590326.455 20172813.107 131638.815 10 0 59464 19800.00000 0 -15351229.987 20119018.199 -3083273.038 10 0 59464 20700.00000 0 -14909149.654 19714997.797 -6238182.522 10 0 59464 21600.00000 0 -14317918.775 18943695.119 -9271681.823 10 0 59464 22500.00000 0 -13635044.441 17800968.313 -12124719.904 10 0 59464 23400.00000 0 -12919110.831 16295964.939 -14741760.604 10 0 59464 24300.00000 0 -12227151.870 14450948.877 -17071871.083 10 0 59464 25200.00000 0 -11612105.357 12300585.988 -19069718.683 10 0 59464 26100.00000 0 -11120457.067 9890717.926 -20696456.319 10 0 59464 27000.00000 0 -10790174.984 7276675.038 -21920479.022 10 0 59464 27900.00000 0 -10649021.262 4521198.659 -22718037.050 10 0 59464 28800.00000 0 -10713313.218 1692059.508 -23073693.968 10 0 59464 29700.00000 0 -10987185.483 -1140528.671 -22980621.280 10 0 59464 30600.00000 0 -11462384.050 -3906592.734 -22440724.509 10 0 59464 31500.00000 0 -12118600.449 -6539069.613 -21464598.800 10 0 59464 32400.00000 0 -12924331.477 -8976351.206 -20071315.502 10 0 59464 33300.00000 0 -13838227.763 -11164599.615 -18288044.272 10 0 59464 34200.00000 0 -14810873.943 -13059737.382 -16149518.432 10 0 59464 35100.00000 0 -15786925.070 -14629031.139 -13697354.232 10 0 59464 36000.00000 0 -16707509.019 -15852204.169 -10979237.417 10 0 59464 36900.00000 0 -17512793.444 -16722033.030 -8047993.136 10 0 59464 37800.00000 0 -18144609.013 -17244405.080 -4960557.416 10 0 59464 38700.00000 0 -18549018.340 -17437836.295 -1776870.315 10 0 59464 39600.00000 0 -18678722.368 -17332471.211 1441287.514 10 0 59464 40500.00000 0 -18495202.860 -16968608.602 4631492.142 10 0 59464 41400.00000 0 -17970510.829 -16394816.072 7731884.326 10 0 59464 42300.00000 0 -17088625.650 -15665713.893 10682364.616 10 0 59464 43200.00000 0 -15846327.622 -14839521.930 13425752.721 10 0 59464 44100.00000 0 -14253547.078 -13975473.177 15908889.059 10 0 59464 45000.00000 0 -12333174.988 -13131202.662 18083657.625 10 0 59464 45900.00000 0 -10120342.253 -12360221.227 19907911.172 10 0 59464 46800.00000 0 -7661196.802 -11709579.854 21346281.551 10 0 59464 47700.00000 0 -5011228.324 -11217822.131 22370860.309 10 0 59464 48600.00000 0 -2233208.914 -10913310.302 22961737.089 10 0 59464 49500.00000 0 605166.398 -10812994.827 23107385.944 10 0 59464 50400.00000 0 3433842.807 -10921679.009 22804892.246 10 0 59464 51300.00000 0 6183067.871 -11231809.758 22060015.760 10 0 59464 52200.00000 0 8786043.685 -11723803.850 20887088.126 10 0 59464 53100.00000 0 11181460.152 -12366896.773 19308745.995 10 0 59464 54000.00000 0 13315805.161 -13120479.529 17355503.907 10 0 59464 54900.00000 0 15145356.231 -13935868.231 15065173.975 10 0 59464 55800.00000 0 16637770.957 -14758432.963 12482142.476 10 0 59464 56700.00000 0 17773210.012 -15529996.965 9656516.261 10 0 59464 57600.00000 0 18544945.709 -16191405.310 6643154.692 10 0 59464 58500.00000 0 18959430.443 -16685154.598 3500605.503 10 0 59464 59400.00000 0 19035822.149 -16957972.072 289965.116 10 0 59464 60300.00000 0 18804986.782 -16963234.220 -2926314.136 10 0 59464 61200.00000 0 18308020.162 -16663121.358 -6085645.957 10 0 59464 62100.00000 0 17594352.084 -16030415.646 -9126536.529 10 0 59464 63000.00000 0 16719513.476 -15049864.957 -11989790.573 10 0 59464 63900.00000 0 15742661.882 -13719053.521 -14619672.353 10 0 59464 64800.00000 0 14723970.792 -12048741.202 -16964998.152 10 0 59464 65700.00000 0 13721994.083 -10062655.904 -18980138.175 10 0 59464 66600.00000 0 12791117.706 -7796746.915 -20625907.864 10 0 59464 67500.00000 0 11979206.770 -5297929.806 -21870331.132 10 0 59464 68400.00000 0 11325547.578 -2622374.879 -22689260.789 10 0 59464 69300.00000 0 10859171.398 166589.541 -23066844.396 10 0 59464 70200.00000 0 10597630.262 3000871.788 -22995827.023 10 0 59464 71100.00000 0 10546275.801 5810209.993 -22477685.594 10 0 59464 72000.00000 0 10698070.756 8524855.960 -21522592.815 10 0 59464 72900.00000 0 11033940.228 11078238.577 -20149211.914 10 0 59464 73800.00000 0 11523646.984 13409496.637 -18384326.632 10 0 59464 74700.00000 0 12127153.153 15465776.336 -16262314.026 10 0 59464 75600.00000 0 12796410.119 17204198.914 -13824470.593 10 0 59464 76500.00000 0 13477500.588 18593417.635 -11118204.992 10 0 59464 77400.00000 0 14113041.967 19614700.455 -8196113.287 10 0 59464 78300.00000 0 14644749.312 20262494.725 -5114954.808 10 0 59464 79200.00000 0 15016049.485 20544451.887 -1934548.683 10 0 59464 80100.00000 0 15174636.051 20480912.653 1283387.303 10 0 59464 81000.00000 0 15074857.100 20103875.801 4476432.864 10 0 59464 81900.00000 0 14679835.228 19455495.135 7582673.161 10 0 59464 82800.00000 0 13963230.335 18586168.814 10541895.064 10 0 59464 83700.00000 0 12910570.881 17552302.063 13296748.773 10 0 59464 84600.00000 0 11520097.363 16413837.655 15793852.702 10 0 59464 85500.00000 0 9803082.173 15231657.969 17984820.680 10 0 59465 0.00000 0 7783611.772 14064967.432 19827192.309 10 0 59465 900.00000 0 5497838.878 12968764.858 21285249.448 10 0 59465 1800.00000 0 2992735.782 11991510.384 22330703.290 10 0 59465 2700.00000 0 324397.631 11173085.425 22943240.104 10 0 59465 3600.00000 0 -2444034.031 10543128.871 23110915.167 10 0 59465 4500.00000 0 -5244743.605 10119819.988 22830387.608 10 0 59465 5400.00000 0 -8007812.683 9909158.215 22106991.577 10 0 59465 6300.00000 0 -10663885.197 9904770.242 20954641.869 10 0 59465 7200.00000 0 -13146817.104 10088252.800 19395575.077 10 0 59465 8100.00000 0 -15396201.696 10430037.330 17459930.256 10 0 59465 9000.00000 0 -17359666.270 10890740.894 15185176.002 10 0 59465 9900.00000 0 -18994844.830 11422947.226 12615393.880 10 0 59465 10800.00000 0 -20270944.654 11973343.466 9800430.978 10 0 59465 11700.00000 0 -21169841.069 12485122.812 6794937.149 10 0 59465 12600.00000 0 -21686654.272 12900551.614 3657305.176 10 0 59465 13500.00000 0 -21829783.716 13163592.018 448534.304 10 0 59465 14400.00000 0 -21620398.402 13222468.408 -2768960.516 10 0 59465 15300.00000 0 -21091404.529 13032067.897 -5932569.770 10 0 59465 16200.00000 0 -20285934.257 12556071.862 -8980716.290 10 0 59465 17100.00000 0 -19255419.814 11768726.756 -11854063.006 10 0 59465 18000.00000 0 -18057334.947 10656177.768 -14496676.826 10 0 59465 18900.00000 0 -16752699.874 9217307.444 -16857125.092 10 0 59465 19800.00000 0 -15403455.899 7464042.523 -18889482.488 10 0 59465 20700.00000 0 -14069821.204 5421114.934 -20554228.246 10 0 59465 21600.00000 0 -12807739.889 3125286.025 -21819016.058 10 0 59465 22500.00000 0 -11666531.995 624065.792 -22659301.806 10 0 59465 23400.00000 0 -10686843.462 -2026019.749 -23058817.204 10 0 59465 24300.00000 0 -9898981.873 -4761541.110 -23009880.674 10 0 59465 25200.00000 0 -9321707.315 -7514570.028 -22513539.985 10 0 59465 26100.00000 0 -8961528.268 -10215276.344 -21579544.494 10 0 59465 27000.00000 0 -8812530.980 -12794609.343 -20226148.072 10 0 59465 27900.00000 0 -8856748.307 -15186952.445 -18479746.994 10 0 59465 28800.00000 0 -9065051.247 -17332641.246 -16374360.230 10 0 59465 29700.00000 0 -9398524.471 -19180240.859 -13950962.476 10 0 59465 30600.00000 0 -9810266.836 -20688488.580 -11256683.104 10 0 59465 31500.00000 0 -10247540.097 -21827821.847 -8343886.774 10 0 59465 32400.00000 0 -10654174.444 -22581428.967 -5269153.756 10 0 59465 33300.00000 0 -10973128.799 -22945779.973 -2092179.875 10 0 59465 34200.00000 0 -11149097.424 -22930616.714 1125382.321 10 0 59465 35100.00000 0 -11131052.533 -22558403.970 4321118.555 10 0 59465 36000.00000 0 -10874615.469 -21863265.791 7433060.751 10 0 59465 36900.00000 0 -10344156.286 -20889452.730 10400884.439 10 0 59465 37800.00000 0 -9514533.154 -19689405.076 13167072.614 10 0 59465 38700.00000 0 -8372398.093 -18321493.793 15678023.913 10 0 59465 39600.00000 0 -6917013.800 -16847534.094 17885084.104 10 0 59465 40500.00000 0 -5160546.640 -15330175.665 19745481.624 10 0 59465 41400.00000 0 -3127822.608 -13830278.415 21223149.897 10 0 59465 42300.00000 0 -855555.310 -12404382.914 22289421.231 10 0 59465 43200.00000 0 1608923.312 -11102380.551 22923579.640 10 0 59465 44100.00000 0 4209378.355 -9965479.970 23113262.415 10 0 59465 45000.00000 0 6882763.802 -9024554.100 22854702.914 10 0 59465 45900.00000 0 9561605.795 -8298936.283 22152809.829 10 0 59465 46800.00000 0 12176580.071 -7795715.491 21021080.949 10 0 59465 47700.00000 0 14659177.988 -7509560.103 19481352.329 10 0 59465 48600.00000 0 16944351.568 -7423077.708 17563386.728 10 0 59465 49500.00000 0 18973028.431 -7507696.198 15304308.052 10 0 59465 50400.00000 0 20694392.238 -7725029.527 12747891.591 10 0 59465 51300.00000 0 22067833.611 -8028671.039 9943722.698 10 0 59465 52200.00000 0 23064489.805 -8366338.980 6946239.316 10 0 59465 53100.00000 0 23668308.130 -8682283.631 3813676.481 10 0 59465 54000.00000 0 23876588.069 -8919853.940 606933.130 10 0 59465 54900.00000 0 23699978.802 -9024114.366 -2611616.522 10 0 59465 55800.00000 0 23161931.888 -8944400.125 -5779343.219 10 0 59465 56700.00000 0 22297632.089 -8636701.281 -8834589.899 10 0 59465 57600.00000 0 21152451.529 -8065773.227 -11717881.003 10 0 59465 58500.00000 0 19779992.820 -7206882.660 -14373089.158 10 0 59465 59400.00000 0 18239804.255 -6047113.647 -16748535.535 10 0 59465 60300.00000 0 16594864.080 -4586177.121 -18798001.733 10 0 59465 61200.00000 0 14908940.565 -2836688.429 -20481632.869 10 0 59465 62100.00000 0 13243939.544 -823900.123 -21766714.143 10 0 59465 63000.00000 0 11657351.340 1415099.690 -22628305.864 10 0 59465 63900.00000 0 10199904.412 3832690.468 -23049724.863 10 0 59465 64800.00000 0 8913523.950 6372469.849 -23022863.465 10 0 59465 65700.00000 0 7829680.396 8971379.053 -22548340.415 10 0 59465 66600.00000 0 6968196.234 11562114.647 -21635481.413 10 0 59465 67500.00000 0 6336559.840 14075726.522 -20302130.224 10 0 59465 68400.00000 0 5929773.737 16444294.155 -18574294.478 10 0 59465 69300.00000 0 5730742.107 18603570.066 -16485633.439 10 0 59465 70200.00000 0 5711179.746 20495480.838 -14076797.973 10 0 59465 71100.00000 0 5833002.727 22070382.106 -11394635.717 10 0 59465 72000.00000 0 6050140.953 23288974.130 -8491277.128 10 0 59465 72900.00000 0 6310695.048 24123798.885 -5423120.293 10 0 59465 73800.00000 0 6559345.708 24560257.124 -2249734.355 10 0 59465 74700.00000 0 6739913.149 24597103.873 967296.892 10 0 59465 75600.00000 0 6797958.110 24246402.760 4165568.733 10 0 59465 76500.00000 0 6683314.268 23532942.127 7283063.331 10 0 59465 77400.00000 0 6352445.007 22493138.305 10259348.163 10 0 59465 78300.00000 0 5770524.986 21173472.772 13036742.049 10 0 59465 79200.00000 0 4913158.589 19628529.148 15561426.561 10 0 59465 80100.00000 0 3767662.691 17918712.405 17784481.751 10 0 59465 81000.00000 0 2333859.309 16107745.656 19662826.846 10 0 59465 81900.00000 0 624344.148 14260048.717 21160048.504 10 0 59465 82800.00000 0 -1335781.226 12438107.368 22247101.350 10 0 59465 83700.00000 0 -3509703.762 10699942.283 22902867.965 10 0 59465 84600.00000 0 -5850188.321 9096782.265 23114568.074 10 0 59465 85500.00000 0 -8301310.113 7671038.017 22878009.240 10 0 59466 0.00000 0 -10800559.946 6454660.060 22197674.226 10 0 59466 900.00000 0 -13281236.711 5467948.888 21086642.757 10 0 59466 1800.00000 0 -15675028.911 4718865.979 19566348.880 10 0 59466 2700.00000 0 -17914679.431 4202875.544 17666177.037 10 0 59466 3600.00000 0 -19936623.779 3903322.072 15422903.970 10 0 59466 4500.00000 0 -21683492.002 3792329.146 12879995.832 10 0 59466 5400.00000 0 -23106370.268 3832181.325 10086773.074 10 0 59466 6300.00000 0 -24166727.252 3977131.175 7097458.378 10 0 59466 7200.00000 0 -24837924.078 4175555.120 3970125.597 10 0 59466 8100.00000 0 -25106243.799 4372366.706 765569.948 10 0 59466 9000.00000 0 -24971396.404 4511584.578 -2453878.419 10 0 59466 9900.00000 0 -24446477.413 4538945.492 -5625573.669 10 0 59466 10800.00000 0 -23557381.362 4404450.486 -8687781.809 10 0 59466 11700.00000 0 -22341694.650 4064734.890 -11580891.536 10 0 59466 12600.00000 0 -20847114.481 3485160.291 -14248583.650 10 0 59466 13500.00000 0 -19129460.844 2641538.362 -16638935.298 10 0 59466 14400.00000 0 -17250365.718 1521412.182 -18705436.756 10 0 59466 15300.00000 0 -15274737.351 124839.653 -20407900.350 10 0 59466 16200.00000 0 -13268106.718 -1535355.186 -21713243.650 10 0 59466 17100.00000 0 -11293967.940 -3433874.483 -22596131.771 10 0 59466 18000.00000 0 -9411224.386 -5533770.990 -23039466.556 10 0 59466 18900.00000 0 -7671847.286 -7787770.597 -23034713.693 10 0 59466 19800.00000 0 -6118844.296 -10140038.135 -22582061.940 10 0 59466 20700.00000 0 -4784622.216 -12528312.891 -21690412.035 10 0 59466 21600.00000 0 -3689811.104 -14886325.007 -20377196.016 10 0 59466 22500.00000 0 -2842597.512 -17146392.211 -18668030.989 10 0 59466 23400.00000 0 -2238593.132 -19242088.771 -16596214.435 10 0 59466 24300.00000 0 -1861242.562 -21110875.711 -14202071.153 10 0 59466 25200.00000 0 -1682751.297 -22696582.926 -11532164.727 10 0 59466 26100.00000 0 -1665493.324 -23951640.020 -8638389.032 10 0 59466 27000.00000 0 -1763837.525 -24838963.281 -5576957.601 10 0 59466 27900.00000 0 -1926314.705 -25333420.591 -2407310.569 10 0 59466 28800.00000 0 -2098032.819 -25422813.714 809039.315 10 0 59466 29700.00000 0 -2223237.731 -25108337.680 4009699.123 10 0 59466 30600.00000 0 -2247910.841 -24404498.830 7132603.436 10 0 59466 31500.00000 0 -2122293.672 -23338495.686 10117213.802 10 0 59466 32400.00000 0 -1803232.624 -21949089.201 12905686.915 10 0 59466 33300.00000 0 -1256244.930 -20285010.052 15443989.246 10 0 59466 34200.00000 0 -457218.628 -18402969.797 17682936.965 10 0 59466 35100.00000 0 606325.287 -16365358.894 19579141.750 10 0 59466 36000.00000 0 1934462.080 -14237727.248 21095844.945 10 0 59466 36900.00000 0 3514616.938 -12086151.792 22203624.691 10 0 59466 37800.00000 0 5321854.547 -9974599.903 22880963.071 10 0 59466 38700.00000 0 7319693.903 -7962397.448 23114662.904 10 0 59466 39600.00000 0 9461415.956 -6101905.893 22900106.342 10 0 59466 40500.00000 0 11691811.416 -4436504.152 22241350.287 10 0 59466 41400.00000 0 13949297.754 -2998958.345 21151056.380 10 0 59466 42300.00000 0 16168318.885 -1810246.781 19650256.201 10 0 59466 43200.00000 0 18281929.115 -878888.698 17767955.246 10 0 59466 44100.00000 0 20224454.777 -200804.517 15540582.156 10 0 59466 45000.00000 0 21934123.168 240286.605 13011292.691 10 0 59466 45900.00000 0 23355549.252 471948.685 10229140.796 10 0 59466 46800.00000 0 24441975.897 531628.920 7248131.908 10 0 59466 47700.00000 0 25157173.175 464834.895 4126176.347 10 0 59466 48600.00000 0 25476916.224 322966.269 923962.903 10 0 59466 49500.00000 0 25389978.593 160893.177 -2296225.301 10 0 59466 50400.00000 0 24898598.327 34384.657 -5471729.009 10 0 59466 51300.00000 0 24018396.346 -2502.872 -8540740.501 10 0 59466 52200.00000 0 22777749.936 100034.895 -11443515.871 10 0 59466 53100.00000 0 21216647.474 385191.674 -14123547.071 10 0 59466 54000.00000 0 19385072.517 887474.507 -16528669.962 10 0 59466 54900.00000 0 17340985.490 1630999.351 -18612085.966 10 0 59466 55800.00000 0 15147988.172 2628231.635 -20333276.807 10 0 59466 56700.00000 0 12872769.486 3879226.093 -21658794.335 10 0 59466 57600.00000 0 10582439.988 5371398.867 -22562910.097 10 0 59466 58500.00000 0 8341866.981 7079842.142 -23028112.298 10 0 59466 59400.00000 0 6211121.602 8968168.694 -23045441.007 10 0 59466 60300.00000 0 4243144.163 10989851.393 -22614655.680 10 0 59466 61200.00000 0 2481724.600 13090001.765 -21744232.364 10 0 59466 62100.00000 0 959881.192 15207513.490 -20451191.225 10 0 59466 63000.00000 0 -301296.146 17277481.421 -18760758.238 10 0 59466 63900.00000 0 -1293291.276 19233795.131 -16705868.018 10 0 59466 64800.00000 0 -2020270.858 21011798.846 -14326517.749 10 0 59466 65700.00000 0 -2498654.329 22550906.829 -11668984.944 10 0 59466 66600.00000 0 -2756164.739 23797065.107 -8784924.463 10 0 59466 67500.00000 0 -2830402.155 24704956.937 -5730362.460 10 0 59466 68400.00000 0 -2767001.194 25239860.156 -2564606.918 10 0 59466 69300.00000 0 -2617451.652 25379079.099 650903.830 10 0 59466 70200.00000 0 -2436675.150 25112891.681 3853792.155 10 0 59466 71100.00000 0 -2280460.803 24444972.499 6981948.597 10 0 59466 72000.00000 0 -2202868.630 23392274.757 9974732.259 10 0 59466 72900.00000 0 -2253710.506 21984376.375 12774141.035 10 0 59466 73800.00000 0 -2476215.091 20262317.892 15325929.398 10 0 59466 74700.00000 0 -2904975.147 18276980.808 17580652.463 10 0 59466 75600.00000 0 -3564263.810 16087073.915 19494616.868 10 0 59466 76500.00000 0 -4466790.872 13756811.113 21030720.809 10 0 59466 77400.00000 0 -5612951.769 11353376.821 22159167.729 10 0 59466 78300.00000 0 -6990601.554 8944283.558 22858040.612 10 0 59466 79200.00000 0 -8575364.446 6594730.488 23113726.323 10 0 59466 80100.00000 0 -10331467.369 4365071.664 22921182.091 10 0 59466 81000.00000 0 -12213064.314 2308498.062 22284038.956 10 0 59466 81900.00000 0 -14165997.978 469028.685 21214539.853 10 0 59466 82800.00000 0 -16129926.870 -1120106.436 19733312.798 10 0 59466 83700.00000 0 -18040730.680 -2437624.735 17868982.640 10 0 59466 84600.00000 0 -19833094.791 -3474843.241 15657627.695 10 0 59466 85500.00000 0 -21443166.749 -4235797.315 13142090.629 99